User: anonymous   Login
Location: Unspecified
(0.0000°N, 0.0000°E)
Time: 13:46:32
(UTC+00:00)
Language:

Metsat - Orbit

View from above orbital plane
View from above orbital plane
View from above satellite
View from above satellite

Ground track
Ground track

The orbit data is extracted from the following two-line orbital elements,

1 26382U 00032A   17114.76723536 +.00000119 +00000-0 +00000-0 0  9990
2 26382 009.8705 040.7774 0005479 238.8259 239.2077 01.00086561061490
Epoch (UTC): 24 April 2017 18:24:49
Eccentricity: 0.0005479
inclination: 9.8705°
perigee height: 35815 km
apogee height: 35861 km
right ascension of ascending node: 40.7774°
argument of perigee: 238.8259°
revolutions per day: 1.00086561
mean anomaly at epoch: 239.2077°
orbit number at epoch: 6149

The dashed part of the orbit path shows where the satellite is in the earth's shadow,  

DLR